This demonstration page uses our WeatherBlox Daily Observations layout. Learn more.

Left ArrowRight Arrow

38.83388, -104.82136

Hourly Observations for March 17, 2018

Temp ( °F °C ) Dew Point ( °F °C ) Humidity (%) Winds ( mph kmh ) Pressure ( in mb ) Visibility ( mi km ) Precip ( " mm )
12:58 am 00:58 Mostly Clear 34 1.1 20 -6.6 57 57 SSE 10 17 29.57 1002 10 16 0.00 0.00
1:58 am 01:58 Partly Cloudy 35 1.4 23 -4.8 64 64 S 12 19 29.57 1002 10 16 0.00 0.00
2:58 am 02:58 Clear 33 0.4 23 -4.8 68 68 S 10 17 29.57 1002 10 16 0.00 0.00
3:58 am 03:58 Clear 34 1.1 24 -4.3 68 68 S 12 19 29.55 1001 10 16 0.00 0.00
4:58 am 04:58 Clear 34 1.2 25 -4 69 69 S 14 22 29.56 1001 10 16 0.00 0.00
5:58 am 05:58 Clear 33 0.8 25 -4.1 70 70 S 12 19 29.56 1001 10 16 0.00 0.00
6:58 am 06:58 Clear 33 0.5 24 -4.3 71 71 S 5 7 29.59 1002 10 16 0.00 0.00
7:58 am 07:58 Sunny 35 1.5 25 -3.9 68 68 Calm 29.58 1002 10 16 0.00 0.00
8:58 am 08:58 Mostly Sunny 37 2.6 25 -4 62 62 NE 3 6 29.60 1002 10 16 0.00 0.00
9:58 am 09:58 Sunny 39 4 25 -3.9 57 57 ENE 6 9 29.58 1002 10 16 0.00 0.00
10:58 am 10:58 Sunny 41 5 25 -3.8 53 53 Calm 29.58 1002 10 16 0.00 0.00
11:58 am 11:58 Sunny 45 7.3 23 -4.8 42 42 SE 8 13 29.54 1000 10 16 0.00 0.00
12:58 pm 12:58 Sunny 48 9 22 -5.5 36 36 SE 15 24 29.51 999 10 16 0.00 0.00
1:58 pm 13:58 Sunny 51 10.5 17 -8.6 25 25 SE 24 39 29.44 997 10 16 0.00 0.00
2:58 pm 14:58 Sunny 52 11.2 17 -8.3 25 25 SE 20 31 29.42 996 10 16 0.00 0.00
3:58 pm 15:58 Sunny 52 11 16 -8.8 24 24 SE 16 26 29.41 996 10 16 0.00 0.00
4:58 pm 16:58 Sunny 51 10.3 13 -10.4 22 22 SE 16 26 29.41 996 10 16 0.00 0.00
5:58 pm 17:58 Sunny 50 10.1 10 -12.2 20 20 SSE 9 15 29.44 997 10 16 0.00 0.00
6:58 pm 18:58 Sunny 50 10.2 8 -13.2 18 18 SSW 6 9 29.44 997 10 16 0.00 0.00
7:58 pm 19:58 Clear 49 9.4 6 -14.3 17 17 WSW 6 9 29.44 997 10 16 0.00 0.00
8:58 pm 20:58 Clear 48 8.7 6 -14.6 18 18 W 6 9 29.43 997 10 16 0.00 0.00
9:58 pm 21:58 Clear 46 7.7 3 -16.3 16 16 W 10 17 29.44 997 10 16 0.00 0.00
10:58 pm 22:58 Clear 47 8.1 1 -17.4 15 15 NW 7 11 29.44 997 10 16 0.00 0.00
11:58 pm 23:58 Clear 46 7.7 0 -17.8 15 15 N 3 6 29.39 995 10 16 0.00 0.00

Powered by AerisWeather